Sharjah International Airport

Airport
ICAO code: 
OMSJ
IATA Code: 
SHJ
Summary
ICAO Region: 
MID
Location: 
Sharjah,
Serving: 
Sharjah
Elevation: 
111 ft
Coordinates: 
Aerial View: 
25° 19' 45.001" N, 55° 30' 58" E
Metar
Observation
OMSJ 020200Z 11005KT 8000 NSC 32/27 Q0994 NOSIG
Station
Sharjah International Airport
Date/Time
2022-07-02 02:00:00
Wind direction
110°
Wind speed
05 kts
Lowest cloud amount
nil significant cloud
Temperature
32°C
Dew point
27°C
Humidity
75%
QNH
994 hPa
Weather condition
n/a

Description

International airport serving the emirate of Sharjah.

Climatology

Hot Desert Climate (Köppen climate classification BWh) - Hot desert climates are typically found in the subtropics where there is unbroken sunshine for the whole year due to the stable descending air and high pressure, little or no precipitation. Maximum temperatures of 40°C to 45°C are not uncommon, particularly during the warmer months of the year.

Runways

Designator Length Width Surface Rops
12/30 4060 45 ASP Yes/Yes
Airport map: 
Aerial View: 

Accidents and Serious Incidents at or in the vicinity of OMSJ

SKYbrary Partners:

Safety knowledge contributed by: